Lid_Strength_Index
1 1 1 1 1 1 1 1 0 0 0 -0 -0 1 1 0 0 0 1 1 1 1
1 1 1 1 1 1 1 0 0 0 1 1 1 1 0 1 1 0 1 1 1 1
1 1 1 1 1 1 1 0 1 1 1 1 0 0 0 1 1 2 2 2 2 2
1 1 1 1 1 1 1 1 1 1 1 1 1 0 1 1 2 2 2 2 3 3
1 1 1 1 1 1 1 1 1 1 1 1 1 1 1 2 2 3 3 3 3 3
2 2 2 1 1 1 1 1 1 1 1 1 1 1 1 1 2 2 2 3 3 3
2 2 2 1 1 1 1 1 1 1 1 1 1 2 2 2 2 2 3 3 3 4
2 1 1 2 1 1 1 1 1 1 1 2 2 3 3 4 3 5 6 7 6 6
2 2 2 2 2 3 3 2 3 3 3 4 8 10 9 6 6 7 8 8 9 9
4 5 4 6 7 8 7 8 8 7 8 8 9 11 10 10 7 7 7 8 9 10
8 8 10 9 8 10 10 9 10 10 10 11 11 11 11 11 8 8 8 9 10 11
8 9 11 10 10 10 11 11 10 11 11 11 12 11 11 10 10 11 12 12 12 12
9 10 10 10 11 14 11 12 12 13 12 12 12 11 11 10 12 13 13 14 14 14
10 10 9 11 13 12 13 13 13 13 13 13 12 12 11 11 13 13 13 14 14 14